Watford City, ND

2:50 PM CDT on September 29, 2016 (GMT -0500)
Watford City

Weather History for KS25 - September, 2012

Change the Weather History Date:

Friday, September 14, 2012

  Actual Average (KISN) Record (KISN)
Temperature  
Mean Temperature 54 °F 57 °F  
Max Temperature 78 °F 72 °F 94 °F (1946)
Min Temperature 30 °F 43 °F 22 °F (1993)
Degree Days  
Heating Degree Days 11 8  
Month to date heating degree days 84  
Since 1 July heating degree days 155  
Cooling Degree Days 0 1  
Month to date cooling degree days 21  
Year to date cooling degree days 450  
Growing Degree Days 4 (Base 50)    
Moisture  
Dew Point 30 °F    
Average Humidity 44    
Maximum Humidity 80    
Minimum Humidity 18    
Precipitation  
Precipitation 0.00 in 0.04 in 0.83 in (1971)
Month to date precipitation 0.52  
Year to date precipitation 11.64  
Sea Level Pressure  
Sea Level Pressure 30.22 in    
Wind  
Wind Speed 4 mph (SSE)    
Max Wind Speed 14 mph    
Max Gust Speed 18 mph    
Visibility 10 miles    
Events      
T = Trace of Precipitation, MM = Missing Value Source: NWS Daily Summary

Daily Weather History Graph

Daily Weather History Graph

Search for Another Location

Airport or City:

Trip Planner

Search our weather history database for the weather conditions in past years. The results will help you decide how hot, cold, wet, or windy it might be!

Date:

Astronomy

Sep. 14, 2012 Rise Set
Actual Time 7:29 AM CDT 8:06 PM CDT
Civil Twilight 6:58 AM CDT 8:37 PM CDT
Nautical Twilight 6:21 AM CDT 9:14 PM CDT
Astronomical Twilight 5:42 AM CDT 9:52 PM CDT
Moon 5:53 AM CDT (9/14) 7:04 PM CDT (9/14)
Length of Visible Light 13h 38m
Length of Day
12h 36m
Waning Crescent, 2% of the Moon is Illuminated
Sep 14
Waning Crescent
Sep 15
New
Sep 22
First Quarter
Sep 29
Full
Oct 8
Last Quarter

Hourly Weather History & Observations

Time (CDT) Temp. Windchill Dew Point Humidity Pressure Visibility Wind Dir Wind Speed Gust Speed Precip Events Conditions
12:15 AM 42.8 °F - 26.6 °F 53% 30.34 in 10.0 mi Calm Calm - N/A   Clear
12:35 AM 41.0 °F - 28.4 °F 61% 30.34 in 10.0 mi Calm Calm - N/A   Clear
12:55 AM 41.0 °F 39.0 °F 26.6 °F 57% 30.34 in 10.0 mi SW 3.5 mph - N/A   Clear
1:15 AM 39.2 °F - 26.6 °F 61% 30.34 in 10.0 mi Calm Calm - N/A   Clear
1:35 AM 37.4 °F 34.9 °F 26.6 °F 65% 30.34 in 8.0 mi WSW 3.5 mph - N/A   Clear
1:55 AM 37.4 °F 34.9 °F 26.6 °F 65% 30.34 in 10.0 mi SSW 3.5 mph - N/A   Clear
2:15 AM 37.4 °F 33.8 °F 26.6 °F 65% 30.34 in 10.0 mi WSW 4.6 mph - N/A   Clear
2:35 AM 35.6 °F 30.7 °F 26.6 °F 70% 30.34 in 10.0 mi SW 5.8 mph - N/A   Clear
2:55 AM 35.6 °F - 26.6 °F 70% 30.34 in 10.0 mi Calm Calm - N/A   Clear
3:15 AM 35.6 °F - 24.8 °F 65% 30.34 in 10.0 mi Calm Calm - N/A   Clear
3:35 AM 35.6 °F 32.8 °F 26.6 °F 70% 30.34 in 10.0 mi SW 3.5 mph - N/A   Clear
3:55 AM 35.6 °F 32.8 °F 26.6 °F 70% 30.34 in 10.0 mi SSW 3.5 mph - N/A   Clear
4:15 AM 33.8 °F - 26.6 °F 75% 30.33 in 10.0 mi Calm Calm - N/A   Clear
4:35 AM 35.6 °F - 26.6 °F 70% 30.33 in 10.0 mi Calm Calm - N/A   Clear
4:55 AM 32.0 °F - 26.6 °F 80% 30.33 in 10.0 mi Calm Calm - N/A   Clear
5:15 AM 35.6 °F - 26.6 °F 70% 30.32 in 10.0 mi Calm Calm - N/A   Clear
5:35 AM 32.0 °F - 26.6 °F 80% 30.32 in 10.0 mi Calm Calm - N/A   Clear
5:55 AM 32.0 °F - 24.8 °F 75% 30.32 in 10.0 mi Calm Calm - N/A   Clear
6:15 AM 32.0 °F - 24.8 °F 75% 30.32 in 10.0 mi Calm Calm - N/A   Clear
6:35 AM 32.0 °F - 26.6 °F 80% 30.32 in 10.0 mi Calm Calm - N/A   Clear
7:15 AM 30.2 °F - 23.0 °F 75% 30.32 in 10.0 mi Calm Calm - N/A   Clear
7:35 AM 30.2 °F 26.7 °F 23.0 °F 75% 30.32 in 4.0 mi WSW 3.5 mph - N/A   Haze
7:55 AM 32.0 °F - 24.8 °F 75% 30.32 in 3.0 mi Calm Calm - N/A   Haze
8:15 AM 35.6 °F - 26.6 °F 70% 30.32 in 6.0 mi Calm Calm - N/A   Haze
8:35 AM 39.2 °F - 28.4 °F 65% 30.32 in 8.0 mi Calm Calm - N/A   Clear
8:55 AM 41.0 °F - 28.4 °F 61% 30.32 in 10.0 mi Calm Calm - N/A   Clear
9:15 AM 44.6 °F - 30.2 °F 57% 30.31 in 10.0 mi Calm Calm - N/A   Clear
9:35 AM 48.2 °F - 32.0 °F 54% 30.31 in 10.0 mi Calm Calm - N/A   Clear
9:55 AM 51.8 °F - 32.0 °F 47% 30.31 in 10.0 mi Calm Calm - N/A   Clear
10:15 AM 55.4 °F - 32.0 °F 41% 30.31 in 8.0 mi Calm Calm - N/A   Clear
10:35 AM 57.2 °F - 32.0 °F 38% 30.31 in 10.0 mi Calm Calm - N/A   Clear
10:55 AM 62.6 °F - 32.0 °F 32% 30.30 in 10.0 mi SW 4.6 mph - N/A   Clear
11:15 AM 64.4 °F - 33.8 °F 32% 30.29 in 10.0 mi South 3.5 mph - N/A   Clear
11:35 AM 66.2 °F - 33.8 °F 30% 30.29 in 10.0 mi SSE 9.2 mph - N/A   Clear
11:55 AM 68.0 °F - 33.8 °F 28% 30.28 in 10.0 mi SE 8.1 mph - N/A   Clear
12:15 PM 68.0 °F - 33.8 °F 28% 30.27 in 10.0 mi SW 3.5 mph - N/A   Clear
12:35 PM 69.8 °F - 33.8 °F 27% 30.26 in 10.0 mi SSE 9.2 mph - N/A   Clear
12:55 PM 69.8 °F - 32.0 °F 25% 30.25 in 10.0 mi SE 8.1 mph - N/A   Clear
1:15 PM 71.6 °F - 32.0 °F 23% 30.24 in 10.0 mi SE 8.1 mph - N/A   Clear
1:35 PM 73.4 °F - 32.0 °F 22% 30.23 in 10.0 mi South 9.2 mph - N/A   Clear
1:55 PM 73.4 °F - 32.0 °F 22% 30.22 in 10.0 mi South 10.4 mph 16.1 mph N/A   Clear
2:15 PM 73.4 °F - 32.0 °F 22% 30.20 in 10.0 mi South 11.5 mph - N/A   Clear
2:35 PM 75.2 °F - 32.0 °F 21% 30.19 in 10.0 mi SSE 6.9 mph - N/A   Clear
2:55 PM 75.2 °F - 32.0 °F 21% 30.18 in 10.0 mi South 5.8 mph - N/A   Clear
3:15 PM 75.2 °F - 32.0 °F 21% 30.17 in 10.0 mi South 13.8 mph 18.4 mph N/A   Clear
3:35 PM 75.2 °F - 32.0 °F 21% 30.16 in 10.0 mi South 6.9 mph - N/A   Clear
3:55 PM 75.2 °F - 32.0 °F 21% 30.15 in 10.0 mi SE 8.1 mph - N/A   Clear
4:15 PM 77.0 °F - 32.0 °F 19% 30.14 in 10.0 mi SSE 8.1 mph - N/A   Clear
4:35 PM 78.8 °F - 32.0 °F 18% 30.13 in 10.0 mi SE 12.7 mph 18.4 mph N/A   Clear
4:55 PM 77.0 °F - 32.0 °F 19% 30.12 in 10.0 mi SE 12.7 mph 17.3 mph N/A   Clear
5:15 PM 77.0 °F - 32.0 °F 19% 30.11 in 10.0 mi SSE 10.4 mph - N/A   Clear
5:35 PM 77.0 °F - 32.0 °F 19% 30.11 in 9.0 mi SSE 10.4 mph - N/A   Clear
5:55 PM 78.8 °F - 32.0 °F 18% 30.10 in 10.0 mi SE 9.2 mph - N/A   Clear
6:15 PM 77.0 °F - 33.8 °F 21% 30.09 in 10.0 mi SSE 10.4 mph - N/A   Clear
6:35 PM 75.2 °F - 32.0 °F 21% 30.08 in 10.0 mi SE 9.2 mph - N/A   Clear
6:55 PM 75.2 °F - 33.8 °F 22% 30.08 in 10.0 mi SE 12.7 mph - N/A   Clear
7:15 PM 75.2 °F - 32.0 °F 21% 30.07 in 10.0 mi SE 11.5 mph - N/A   Clear
7:35 PM 73.4 °F - 32.0 °F 22% 30.06 in 10.0 mi ESE 11.5 mph - N/A   Clear
7:55 PM 68.0 °F - 32.0 °F 26% 30.05 in 10.0 mi ESE 9.2 mph - N/A   Clear
8:15 PM 66.2 °F - 32.0 °F 28% 30.05 in 10.0 mi SE 10.4 mph - N/A   Clear
8:35 PM 64.4 °F - 32.0 °F 30% 30.04 in 10.0 mi ESE 11.5 mph - N/A   Clear
8:55 PM 62.6 °F - 32.0 °F 32% 30.04 in 10.0 mi ESE 11.5 mph - N/A   Clear
9:15 PM 60.8 °F - 32.0 °F 34% 30.04 in 10.0 mi ESE 12.7 mph - N/A   Clear
9:35 PM 60.8 °F - 32.0 °F 34% 30.03 in 10.0 mi ESE 12.7 mph - N/A   Clear
9:55 PM 59.0 °F - 32.0 °F 36% 30.03 in 10.0 mi ESE 12.7 mph - N/A   Clear
10:15 PM 59.0 °F - 32.0 °F 36% 30.03 in 10.0 mi SE 11.5 mph - N/A   Clear
10:35 PM 59.0 °F - 32.0 °F 36% 30.03 in 10.0 mi SE 10.4 mph - N/A   Clear
10:55 PM 57.2 °F - 32.0 °F 38% 30.02 in 10.0 mi SE 9.2 mph - N/A   Clear
11:35 PM 55.4 °F - 32.0 °F 41% 30.02 in 10.0 mi East 3.5 mph - N/A   Clear
11:55 PM 55.4 °F - 32.0 °F 41% 30.01 in 10.0 mi ESE 3.5 mph - N/A   Clear